Resultados

3000 Electronico
Fecha Serie Viento Presión Humedad Temperatura
03-04-2016 Final_A
Puesto Andanivel Nombre Dia Mes Año Pais Marca
01 376 Espinosa Freddy 29 7 1986 COL - 08.13.93
02 396 Pensa Natalio 19 8 1989 LAPRI - 08.16.04 -
03 362 Willian Silva Dos Santos 4 4 1995 LUASA - 08.16.26 -
04 255 Cuestas Nicolas 8 12 1986 ENP - 08.17.79 -
05 270 Bazan Argandoña Mario Alfonso 1 9 1987 PER - 08.18.42 -
06 252 De Los Santos Alexander 22 9 1985 FAM - 08.18.51 -
07 87 Monin Ezequiel Alejandro 10 09 1987 JM AAVCH 08.20.14
08 355 Ioran Etchechury 24 1 1993 SOGIP - 08.20.41 -
09 269 Zamora Cristhian 15 1 1991 LGA - 08.20.72 -
10 5 Gregorio Eduardo 4 1 1989 ATE - 08.29.78 -
11 397 Stutz Jorge 15 1 1988 TORDI - 08.33.80 -
12 86 Fernandez Guerrero Jose Ignacio 20 3 1987 EMUNE 08.35.26
13 370 Tejera Jhonatan 13 1 1988 CAP - 08.35.35 -
14 363 Vinicios Rocha Veloso 24 3 1996 LUASA - 08.36.06 -
15 381 Biedma Rodrigo 24 6 1983 ARG - 08.40.89
16 371 Cassina Steven 15 5 1995 CAP - 08.41.96 -
17 378 Niestroj Alan 25 9 1992 TALAR - 08.42.83 -
18 389 Segovia Cristian 20 12 1995 ISAAC - 08.45.64 -
19 343 Ichiparra Yonathan 4 8 1996 PER - 08.47.02
20 95 Moreira Mariano 6 1 1998 FAM - 08.47.67 -
21 256 Caceres Oscar 2 2 1994 MyC - 08.51.07
22 208 Gonzalez Nicolas 28 5 1990 ATE - 08.55.79 -
23 263 Johnson Carlos 7 6 1997 VyR - 08.56.49 -
24 88 Temperan Ezequiel 28 12 1996 JM - 09.03.95
25 360 Rodriguez Bruno 20 10 1999 MyC - 09.04.89 -
26 258 Mendez Rodrigo 22 5 1995 NAC - 09.07.07 -
27 361 Rodriguez Matias 20 10 1999 MYC - 09.12.28 -
28 204 Costa Marco Rogerio 27 3 1985 BRA - 09.18.72 -
29 356 Yuri Fajardo 23 9 1986 SOGIP - 09.30.28 -
30 358 Mattheus S. Porto 29 7 1995 SOGIP - 09.47.94
31 382 Tello Ezequiel 27 9 1991 RAFA - 09.54.77 -
32 89 Scalise Enzo-sin Dni- 1 1 1900 JM - 09.55.75
99 398 Larrosa Daniel 16 2 1991 AND - DNF
99 272 Castillo Mauricio 28 4 1995 MRUN - DNS